Location: ?????
(38.3715°N, 23.0573°E)
Time: 10:16:49
(UTC+00:00)

Cosmos 2263 - Pass Details

Date: 03 August 2024
Orbit: 830 x 865 km, 70.9° (Epoch: 14 September)

Event Time Altitude Azimuth Distance (km) Brightness Sun altitude
Rises 19:12:40 0° 206° (SSW) 3,395 7.2 -17.1°
Reaches altitude 10° 19:15:06 10° 208° (SSW) 2,469 6.5 -17.5°
Maximum altitude 19:20:47 73° 293° (WNW) 895 4.4 -18.3°
Drops below altitude 10° 19:26:33 10° 19° (NNE) 2,506 6.9 -19.2°
Sets 19:29:02 0° 21° (NNE) 3,449 7.7 -19.5°
